COSMOS 2526

Last updated on Nov. 18, 2019, 4:21 a.m. UTC

1 43432U 18037A   19320.87836685 -.00000336  00000-0  00000-0 0  9994
2 43432   0.0132  74.0897 0001353 244.2637 181.5892  1.00270602  5871
UTC
Height (km)
Latitude
Longitude
Inclination
Orbital Period
UTC large
Height (km)
Speed (km/s)
/
Latitude / Longitude
Inclination (degrees)
Orbital Period (minutes)
Azimuth
Elevation
Range (km)
Doppler Factor
iOS Compass Heading
iOS Angle

Next 30 passes for location: Hong Kong

Rise time Rise Azimuth (degrees) Set time Set Azimuth (degrees) Duration Max altitude (degrees)

No matching passes for this satellites